TOURFACTS.DK  
Stats and Facts from Tour de France.

Tour de France 2018 starts in 13 days
  Riders   Stages   Teams   Summits   Yearly  


 
Search by year

After 2017 - Stage 21:
 14824 starters.
  5132 different riders.
  639 teams.
  2232 stages.
  456 restdays.
  439589.60 km.
  5653 abandonnees.


Top 3
GC
Christopher Froome86:20:55
Rigoberto Urán86:21:49
Romain Bardet86:23:15
Climb
Warren Barguil169 pt.
Primoz Roglic80 pt.
Thomas De Gendt64 pt.
Sprint
Michael Matthews359 pt.
André Greipel234 pt.
Edvald Boasson Hagen220 pt.
Youth
Simon Yates86:27:09
Louis Meintjes86:29:15
Emanuel Buchmann86:54:16
Facts from Tour de France 1975
  |   Stages.  |   Stage winners.  |   Days in yellow  |   Average speed.  |   Route.  |   Teams.  |   All riders.  |   Rookies.  |  

  |   Withdrawls.  |   GC.  |   Polka  |   Green  |   White  |   Summits. (In tour)  |   Miscellaneous.  |  

Stage 15 on 13 - 07 - 1975
         Owning:    Bernard Thevenet    
Pick a stage:  Pro 1a 1b 2 3 4 5 6 7 8 9a 9b 10 11 12 13 14 15 16 17 18 19 20 21 22
  NicePra-Loup | Dist: 217.50 km.
Cat: 2Col de la CouilloleBELLucien Van Impe
15 points
 
Cat: 1Col des ChampsBELEddy Merckx
20 points
 
Cat: 1Col d'AllosBELEddy Merckx
20 points
 
Cat: 2Pra LoupFRABernard Thevenet
15 points
 

Average speed for all riders in stage:  26,611 km./hr.
    Place:Name:Team:Time:Km/h:
FRABernard ThevenetFRAPeugeot-BP-Michelin07:46:35  +  00:00:00=27,969 
2 BELLucien Van ImpeFRAGitane-Campagnolo07:46:35  +  00:00:00=27,969 
ITAFelice GimondiITABianchi-Campagnolo07:46:38  +  00:00:03=27,966 
NEDJoop ZoetemelkFRAGan-Mercier-Hutchinson07:47:47  +  00:01:12=27,898 
5 BELEddy MerckxITAMolteni07:48:31  +  00:01:56=27,854 
6 ITAFrancesco MoserITAFilotex07:49:47  +  00:03:12=27,779 
7 SUIJosef FuchsITAFilotex07:49:47  +  00:03:12=27,779 
8 ESPLuis BalagueESPSuper Ser07:52:01  +  00:05:26=27,647 
9 FRARaymond DelisleFRAPeugeot-BP-Michelin07:52:36  +  00:06:01=27,613 
10 ESPVicente LopezESPKas-Kaskol07:52:51  +  00:06:16=27,599 
11 ESPAndré RomeroFRAJobo-Wolber07:52:55  +  00:06:20=27,595 
12 BELEduard JanssensITAMolteni07:53:07  +  00:06:32=27,583 
13 ESPAntonio MenendezESPKas-Kaskol07:53:18  +  00:06:43=27,572 
14 FRAPatrick PerretBELMiko-De Gribaldy07:54:32  +  00:07:57=27,501 
15 PORJoaquim AgostinhoPRTSporting-Sottomayor07:54:43  +  00:08:08=27,490 
16 FRAGeorges TalbourdetFRAGan-Mercier-Hutchinson07:55:51  +  00:09:16=27,425 
17 BELJos De SchoenmaeckerITAMolteni07:55:58  +  00:09:23=27,418 
18 ESPMariano MartinezFRAGitane-Campagnolo07:57:54  +  00:11:19=27,307 
19 ESPPedro TorresESPSuper Ser07:58:01  +  00:11:26=27,300 
20 COLMartěn RodríguezITABianchi-Campagnolo07:58:32  +  00:11:57=27,271 
21 FRAFerdinand JulienPRTSporting-Sottomayor07:58:32  +  00:11:57=27,271 
22 FRARaymond PoulidorFRAGan-Mercier-Hutchinson07:58:42  +  00:12:07=27,261 
23 NEDHennie KuiperNLDFrisol-G.B.C.07:58:58  +  00:12:23=27,246 
24 ESPJosé-Luis ViejoESPSuper Ser07:59:22  +  00:12:47=27,223 
25 ITAArnaldo CaverzasiITAFilotex08:00:25  +  00:13:50=27,164 
26 ESPSantiago LazcanoESPSuper Ser08:01:12  +  00:14:37=27,120 
27 ITASimone FraccaroITABianchi-Campagnolo08:01:17  +  00:14:42=27,115 
28 FRARaymond MartinFRAGitane-Campagnolo08:01:31  +  00:14:56=27,102 
29 ESPCarlos MeleroESPKas-Kaskol08:01:31  +  00:14:56=27,102 
30 NEDFedor Iwan Den HertogNLDFrisol-G.B.C.08:02:31  +  00:15:56=27,046 
31 BELJoseph SpruytITAMolteni08:03:48  +  00:17:13=26,974 
32 FRAJean-Pierre DanguillaumeFRAPeugeot-BP-Michelin08:03:56  +  00:17:21=26,967 
33 FRARégis OvionFRAPeugeot-BP-Michelin08:04:34  +  00:17:59=26,931 
34 BELAlbert Van VlierbergheBELMiko-De Gribaldy08:09:03  +  00:22:28=26,684 
35 BELWalter GodefrootBELCarpenter Confortluxe-Flandria08:13:53  +  00:27:18=26,423 
36 FRACharly RouxelFRAPeugeot-BP-Michelin08:13:53  +  00:27:18=26,423 
37 BELRonald De WitteBELCarpenter Confortluxe-Flandria08:13:53  +  00:27:18=26,423 
38 DENOle RitterITAFilotex08:13:53  +  00:27:18=26,423 
39 NEDGerben KarstensFRAGitane-Campagnolo08:13:53  +  00:27:18=26,423 
40 BELMarc DemeyerBELCarpenter Confortluxe-Flandria08:13:53  +  00:27:18=26,423 
41 FRAJean-Pierre GenetFRAGan-Mercier-Hutchinson08:13:53  +  00:27:18=26,423 
42 ESPJosé CasasESPSuper Ser08:13:53  +  00:27:18=26,423 
43 FRAMichel PerinFRAGan-Mercier-Hutchinson08:13:53  +  00:27:18=26,423 
44 BELJoseph HuysmansITAMolteni08:13:53  +  00:27:18=26,423 
45 BELWilly TeirlinckFRAGitane-Campagnolo08:17:52  +  00:31:17=26,212 
46 FRARoger LegeayFRAJobo-Wolber08:17:52  +  00:31:17=26,212 
47 MARAntoine GutierrezBELMiko-De Gribaldy08:17:52  +  00:31:17=26,212 
48 PORFernando FerreiraPRTSporting-Sottomayor08:17:52  +  00:31:17=26,212 
49 ITAGiacinto SantambrogioITABianchi-Campagnolo08:17:52  +  00:31:17=26,212 
50 BELMichel PollentierBELCarpenter Confortluxe-Flandria08:17:52  +  00:31:17=26,212 
51 BELMarc LievensITAMolteni08:17:52  +  00:31:17=26,212 
52 NEDGerrie KnetemannFRAGan-Mercier-Hutchinson08:17:52  +  00:31:17=26,212 
53 BELTony HoubrechtsITABianchi-Campagnolo08:17:52  +  00:31:17=26,212 
54 FRARichard PianaroFRAJobo-Wolber08:17:52  +  00:31:17=26,212 
55 BELRik Van LindenITABianchi-Campagnolo08:17:52  +  00:31:17=26,212 
56 FRARobert MintkiewiczFRAGitane-Campagnolo08:17:52  +  00:31:17=26,212 
57 ITARoberto PoggialiITAFilotex08:17:52  +  00:31:17=26,212 
58 FRABernard BourreauFRAPeugeot-BP-Michelin08:17:52  +  00:31:17=26,212 
59 BELFrans Van VlierbergheBELMiko-De Gribaldy08:17:52  +  00:31:17=26,212 
60 ITARenato MarchettiITAFilotex08:17:52  +  00:31:17=26,212 
61 BELFrans MintjensITAMolteni08:17:52  +  00:31:17=26,212 
62 BELHerman BeysensITAMolteni08:17:52  +  00:31:17=26,212 
63 ESPJosé GrandeESPKas-Kaskol08:17:52  +  00:31:17=26,212 
64 FRAGuy LeleuFRAGitane-Campagnolo08:17:52  +  00:31:17=26,212 
65 BELKarel RottiersITAMolteni08:17:52  +  00:31:17=26,212 
66 ESPFrancisco GaldosESPKas-Kaskol08:17:52  +  00:31:17=26,212 
67 FRAMaurice Le GuillouxFRAGitane-Campagnolo08:17:52  +  00:31:17=26,212 
68 BELLudo DelcroixITAMolteni08:17:52  +  00:31:17=26,212 
69 ESPJosé PesarrodonaESPKas-Kaskol08:17:52  +  00:31:17=26,212 
70 ITAFabrizio FabbriITABianchi-Campagnolo08:17:52  +  00:31:17=26,212 
71 ITAPietro DallaiITAFilotex08:17:52  +  00:31:17=26,212 
72 FRAFrancis CampanerPRTSporting-Sottomayor08:17:52  +  00:31:17=26,212 
73 BELHerman Van SpringelBELCarpenter Confortluxe-Flandria08:17:52  +  00:31:17=26,212 
74 FRAClaude MagniFRAJobo-Wolber08:17:52  +  00:31:17=26,212 
75 BELJosé De CauwerNLDFrisol-G.B.C.08:17:52  +  00:31:17=26,212 
76 FRASylvain VasseurESPSuper Ser08:17:52  +  00:31:17=26,212 
77 FRAHubert MathisBELMiko-De Gribaldy08:17:52  +  00:31:17=26,212 
78 FRARegis DelepineBELCarpenter Confortluxe-Flandria08:17:52  +  00:31:17=26,212 
79 ITAMauro SimonettiITAFilotex08:17:52  +  00:31:17=26,212 
80 NEDGerard VianenFRAGan-Mercier-Hutchinson08:17:52  +  00:31:17=26,212 
81 ITASigfrido FontanelliITAFilotex08:17:52  +  00:31:17=26,212 
82 BELAndre DoyenBELMiko-De Gribaldy08:17:52  +  00:31:17=26,212 
83 ITAGiovanni CavalcantiITABianchi-Campagnolo08:17:52  +  00:31:17=26,212 
84 FRAYves HézardFRAGan-Mercier-Hutchinson08:17:52  +  00:31:17=26,212 
85 FRAGuy SibilleFRAPeugeot-BP-Michelin08:17:52  +  00:31:17=26,212 
86 FRAGerard MoneyronBELCarpenter Confortluxe-Flandria08:17:52  +  00:31:17=26,212 
87 ITALuigi CastellettiITABianchi-Campagnolo08:17:52  +  00:31:17=26,212 
88 FRASerge ParsaniITABianchi-Campagnolo08:17:52  +  00:31:17=26,212 
89 NEDHenk PrinsenNLDFrisol-G.B.C.08:17:52  +  00:31:17=26,212 
90 FRAPatrick BeonFRAPeugeot-BP-Michelin08:18:18  +  00:31:43=26,189 
91 FRAJoël MillardFRAJobo-Wolber08:20:14  +  00:33:39=26,088 
92 FRAJoel HauvieuxFRAJobo-Wolber08:20:22  +  00:33:47=26,081 
93 ENGBarry HobanFRAGan-Mercier-Hutchinson08:20:22  +  00:33:47=26,081 
94 FRAJean-Claude MisacFRAGan-Mercier-Hutchinson08:21:05  +  00:34:30=26,044 
95 AUSDonald AllanNLDFrisol-G.B.C.08:21:09  +  00:34:34=26,040 
96 NEDGerard KamperNLDFrisol-G.B.C.08:21:13  +  00:34:38=26,037 
97 BELRené DillenFRAGitane-Campagnolo08:21:15  +  00:34:40=26,035 
98 FRAJacques BoulasFRAJobo-Wolber08:21:50  +  00:35:15=26,005 
99 PORJosé AmaroPRTSporting-Sottomayor08:24:10  +  00:37:35=25,884 

Withdrawls: 8
 
Rider
Team
Reason
32  ITAAlessio AntoniniITAJollyceramicaDid not start
36  ITAPierino GavazziITAJollyceramicaDid not start
37  ITADonato GiulianiITAJollyceramicaDid not start
40  ITASandro QuintarelliITAJollyceramicaDid not start
54  FRAJosé CatieauFRAPeugeot-BP-MichelinDid not finish
79  FRAAlain SantyFRAGitane-CampagnoloDid not finish
109  FRAAndré MolletPRTSporting-SottomayorDid not finish
115  BELRoger LoyschBELMiko-De GribaldyDid not finish

Todays birthdays.

1895  François Colomines
1901  Victor Pellier
1921  Maurice Carpentier
1921  Hans Hutmacher
1924  Norbert Callens
1928  Armand Baeyens
1933  Adriano Zamboni
1944  Ercole Gualazzini
1952  Jose Lopez
1956  Alfons De Wolf
1958  Sergio Jaramillo
1961  José Vieira
1963  Luigi Furlan
1972  Dariusz Baranowski
1973  Cyril Saugrain
1975  Andréas Klöden
1977  Angelo Furlan
1979  Thomas Voeckler
1983  Jérémy Roy




Visits: